GW4807 Weather Reports


Display with metric or nautical units.
time (UTC)temp
F
wind
direction
speed
MPH
gust
MPH
rain 1hr
in
rain 24hr
in
rain mn
in
humidity
%
barometer
mb
20260906234715 93 110 2.0 3.0 0.00 0.04 0.04 50 1007.2
20260906234210 93 102 0.0 1.0 0.00 0.04 0.04 50 1007.2
20260906233709 94 107 3.0 3.0 0.00 0.04 0.04 48 1007.1
20260906233208 95 81 2.0 2.0 0.00 0.04 0.04 47 1007.2
20260906232703 96 104 0.0 0.0 0.00 0.04 0.04 47 1007.0
20260906232158 95 119 1.0 1.0 0.00 0.04 0.04 49 1007.1
20260906231653 96 87 1.0 1.0 0.00 0.04 0.04 48 1007.1
20260906231148 96 85 3.0 3.0 0.00 0.04 0.04 48 1007.1
20260906230647 96 111 2.0 2.0 0.00 0.04 0.04 48 1006.8
20260906230142 96 104 3.0 5.0 0.00 0.04 0.04 48 1006.9
20260906225641 96 112 1.0 1.0 0.00 0.04 0.04 48 1006.8
20260906225138 96 98 2.0 2.0 0.00 0.04 0.04 48 1006.8
20260906224638 96 91 1.0 2.0 0.00 0.04 0.04 48 1006.7
20260906224135 96 96 1.0 2.0 0.00 0.04 0.04 49 1006.7
20260906223631 96 95 3.0 5.0 0.00 0.04 0.04 48 1006.7
20260906223130 96 70 2.0 2.0 0.00 0.04 0.04 48 1006.8
20260906222629 96 107 2.0 3.0 0.00 0.04 0.04 48 1006.9
20260906222127 97 76 2.0 3.0 0.00 0.04 0.04 48 1006.8
20260906221626 98 111 0.0 1.0 0.00 0.04 0.04 50 1007.0
20260906221121 96 93 1.0 2.0 0.00 0.04 0.04 51 1006.8
20260906220616 96 105 1.0 1.0 0.00 0.04 0.04 54 1006.9
20260906220112 96 47 4.0 6.0 0.00 0.04 0.04 49 1007.0
20260906215610 96 77 2.0 3.0 0.00 0.04 0.04 49 1006.8
20260906215109 97 86 3.0 3.0 0.00 0.04 0.04 48 1006.9
20260906214608 96 121 0.0 1.0 0.00 0.04 0.04 55 1006.9
20260906214103 96 114 0.0 1.0 0.00 0.04 0.04 54 1007.0
20260906213602 96 100 1.0 1.0 0.00 0.04 0.04 59 1007.0
20260906213057 95 147 1.0 1.0 0.00 0.04 0.04 63 1007.5
20260906212549 94 82 1.0 1.0 0.00 0.04 0.04 63 1007.4
20260906212045 93 133 1.0 1.0 0.00 0.04 0.04 68 1007.3
20260906211544 91 129 0.0 0.0 0.00 0.04 0.04 74 1007.6
20260906211040 89 119 0.0 1.0 0.00 0.04 0.04 82 1007.8
20260906210535 87 112 1.0 1.0 0.00 0.04 0.04 84 1007.9
20260906210030 85 121 0.0 0.0 0.00 0.04 0.04 93 1007.8
20260906205526 84 110 1.0 1.0 0.00 0.04 0.04 97 1007.7
20260906205021 82 95 1.0 1.0 0.00 0.04 0.04 97 1007.6
20260906204520 80 117 0.0 0.0 0.00 0.04 0.04 98 1007.4
20260906204015 80 119 0.0 0.0 0.00 0.04 0.04 98 1007.4
20260906203510 79 111 0.0 1.0 0.00 0.04 0.04 95 1007.7
20260906203009 80 141 1.0 1.0 0.24 0.04 0.04 91 1007.7
20260906202501 82 156 1.0 2.0 0.17 0.03 0.03 85 1008.0
20260906201955 86 155 2.0 2.0 0.05 0.01 0.01 76 1008.5
20260906201450 90 116 1.0 2.0 0.00 0.00 0.00 69 1008.6
20260906200950 95 115 3.0 5.0 0.00 0.00 0.00 55 1008.5
20260906200446 95 107 0.0 1.0 0.00 0.00 0.00 46 1008.1
20260906195946 95 53 2.0 2.0 0.00 0.00 0.00 49 1008.0
20260906195442 95 97 2.0 5.0 0.00 0.00 0.00 48 1007.7
20260906194938 96 117 1.0 1.0 0.00 0.00 0.00 47 1007.6
20260906194434 95 118 2.0 3.0 0.00 0.00 0.00 47 1007.9
20260906193929 96 135 3.0 5.0 0.00 0.00 0.00 47 1007.9
20260906193424 95 47 8.0 10.0 0.00 0.00 0.00 47 1008.0
20260906192920 95 111 6.0 7.0 0.00 0.00 0.00 49 1007.9
20260906192419 96 65 2.0 2.0 0.00 0.00 0.00 48 1007.9
20260906191919 97 68 6.0 7.0 0.00 0.00 0.00 46 1007.6
20260906191414 101 60 7.0 11.0 0.00 0.00 0.00 42 1007.8
20260906190913 103 68 4.0 7.0 0.00 0.00 0.00 36 1007.9
20260906190412 101 126 1.0 1.0 0.00 0.00 0.00 36 1007.8
20260906185908 101 47 3.0 3.0 0.00 0.00 0.00 37 1007.9
20260906185407 102 73 2.0 3.0 0.00 0.00 0.00 36 1007.9
20260906184901 101 39 3.0 3.0 0.00 0.00 0.00 37 1007.7
20260906184356 102 127 2.0 3.0 0.00 0.00 0.00 37 1008.1
20260906183851 102 272 2.0 5.0 0.00 0.00 0.00 37 1008.0
20260906183348 100 64 2.0 2.0 0.00 0.00 0.00 39 1007.9
20260906182847 98 97 2.0 2.0 0.00 0.00 0.00 42 1008.2
20260906182344 99 129 3.0 3.0 0.00 0.00 0.00 41 1008.1
20260906181844 100 94 4.0 5.0 0.00 0.00 0.00 40 1008.2
20260906181340 100 124 1.0 1.0 0.00 0.00 0.00 41 1008.6
20260906180835 101 114 1.0 1.0 0.00 0.00 0.00 39 1008.1
20260906180330 100 169 1.0 2.0 0.00 0.00 0.00 41 1008.5
20260906175827 100 128 0.0 1.0 0.00 0.00 0.00 41 1008.7
20260906175323 100 138 1.0 1.0 0.00 0.00 0.00 41 1008.7
20260906174822 100 81 3.0 3.0 0.00 0.00 0.00 41 1009.0
20260906174321 99 119 1.0 1.0 0.00 0.00 0.00 39 1009.0
20260906173816 100 110 1.0 1.0 0.00 0.00 0.00 40 1009.1
20260906173312 100 127 0.0 0.0 0.00 0.00 0.00 41 1009.0
20260906172810 99 128 1.0 2.0 0.00 0.00 0.00 41 1009.2
20260906172307 98 97 3.0 3.0 0.00 0.00 0.00 42 1009.3
20260906171802 98 144 0.0 1.0 0.00 0.00 0.00 43 1009.4
20260906171257 98 102 4.0 7.0 0.00 0.00 0.00 43 1009.5
20260906170752 98 72 1.0 1.0 0.00 0.00 0.00 44 1009.4
20260906170248 97 125 0.0 0.0 0.00 0.00 0.00 43 1009.6
20260906165744 97 127 0.0 1.0 0.00 0.00 0.00 46 1009.7
20260906165243 96 60 1.0 2.0 0.00 0.00 0.00 46 1009.7
20260906164738 97 108 3.0 5.0 0.00 0.00 0.00 47 1009.9
20260906164233 97 47 3.0 5.0 0.00 0.00 0.00 46 1009.7
20260906163729 97 78 4.0 6.0 0.00 0.00 0.00 46 1009.9
20260906163225 96 126 0.0 1.0 0.00 0.00 0.00 48 1009.9
20260906162721 96 112 1.0 2.0 0.00 0.00 0.00 46 1009.9
20260906162216 96 114 0.0 1.0 0.00 0.00 0.00 48 1009.9
20260906161710 96 77 3.0 3.0 0.00 0.00 0.00 48 1010.0
20260906161210 95 117 1.0 2.0 0.00 0.00 0.00 50 1009.9
20260906160709 95 105 2.0 3.0 0.00 0.00 0.00 50 1009.7
20260906160203 95 93 3.0 5.0 0.00 0.00 0.00 51 1010.1
20260906155700 95 116 1.0 1.0 0.00 0.00 0.00 51 1010.0
20260906155155 95 99 3.0 6.0 0.00 0.00 0.00 51 1009.9
20260906154650 96 110 0.0 1.0 0.00 0.00 0.00 50 1009.7
20260906154145 95 104 1.0 1.0 0.00 0.00 0.00 52 1009.9
20260906153644 94 83 3.0 3.0 0.00 0.00 0.00 53 1009.8
20260906153138 94 123 0.0 0.0 0.00 0.00 0.00 54 1010.0
20260906152633 94 102 1.0 1.0 0.00 0.00 0.00 53 1009.7
20260906152127 93 107 1.0 1.0 0.00 0.00 0.00 55 1009.9
20260906151622 92 75 3.0 3.0 0.00 0.00 0.00 56 1009.8
20260906151118 91 115 0.0 1.0 0.00 0.00 0.00 59 1009.7
20260906150613 90 104 1.0 2.0 0.00 0.00 0.00 59 1009.8
20260906150109 90 158 2.0 2.0 0.00 0.00 0.00 62 1009.6
20260906145607 89 122 0.0 0.0 0.00 0.00 0.00 63 1009.6
20260906145102 88 95 1.0 1.0 0.00 0.00 0.00 65 1009.7
20260906144556 87 68 3.0 3.0 0.00 0.00 0.00 65 1009.9
20260906144052 86 122 0.0 0.0 0.00 0.00 0.00 68 1009.7
20260906143546 86 97 0.0 1.0 0.00 0.00 0.00 69 1009.8
20260906143043 85 96 2.0 2.0 0.00 0.00 0.00 69 1009.7
20260906142537 84 116 1.0 1.0 0.00 0.00 0.00 72 1009.8
20260906142033 83 129 0.0 0.0 0.00 0.00 0.00 73 1009.7
20260906141531 83 91 0.0 1.0 0.00 0.00 0.00 74 1009.9
20260906141027 82 132 1.0 2.0 0.00 0.00 0.00 74 1010.1
20260906140521 82 109 0.0 0.0 0.00 0.00 0.00 76 1009.9
20260906140020 81 128 0.0 0.0 0.00 0.00 0.00 77 1009.8
20260906135517 80 122 0.0 1.0 0.00 0.00 0.00 77 1009.9
20260906135013 80 118 1.0 2.0 0.00 0.00 0.00 77 1010.0
20260906134509 80 115 1.0 1.0 0.00 0.00 0.00 77 1010.0
20260906134008 82 119 0.0 1.0 0.00 0.00 0.00 76 1009.9
20260906133504 83 112 1.0 1.0 0.00 0.00 0.00 73 1009.7
20260906133000 82 116 0.0 0.0 0.00 0.00 0.00 77 1009.6
20260906132454 81 124 0.0 0.0 0.00 0.00 0.00 81 1009.5
20260906131950 79 125 0.0 1.0 0.00 0.00 0.00 84 1009.6
20260906131445 78 125 0.0 0.0 0.00 0.00 0.00 85 1009.7
20260906130941 78 130 1.0 1.0 0.00 0.00 0.00 86 1009.5
20260906130440 76 114 0.0 0.0 0.00 0.00 0.00 88 1009.6
20260906125935 75 123 0.0 0.0 0.00 0.00 0.00 96 1009.6
20260906125431 73 121 0.0 0.0 0.00 0.00 0.00 99 1009.6
20260906124926 72 117 0.0 0.0 0.00 0.00 0.00 99 1009.4
20260906124422 71 120 0.0 0.0 0.00 0.00 0.00 99 1009.4
20260906123922 70 121 0.0 0.0 0.00 0.00 0.00 99 1009.4
20260906123421 69 124 0.0 0.0 0.00 0.00 0.00 99 1009.5
20260906122915 69 120 0.0 0.0 0.00 0.00 0.00 99 1009.5
20260906122411 69 122 0.0 0.0 0.00 0.00 0.00 99 1009.5
20260906121908 68 124 0.0 0.0 0.00 0.00 0.00 99 1009.4
20260906121403 68 125 0.0 0.0 0.00 0.00 0.00 99 1009.2
20260906120859 68 125 0.0 0.0 0.00 0.00 0.00 99 1009.2
20260906120355 68 122 0.0 0.0 0.00 0.00 0.00 99 1009.0
20260906115851 68 124 0.0 0.0 0.00 0.00 0.00 99 1009.4
20260906115346 68 122 0.0 0.0 0.00 0.00 0.00 99 1009.2
20260906114845 68 122 0.0 0.0 0.00 0.00 0.00 99 1009.0
20260906114340 68 122 0.0 0.0 0.00 0.00 0.00 99 1008.9
20260906113835 68 123 0.0 0.0 0.00 0.00 0.00 99 1009.2
20260906113334 68 125 0.0 0.0 0.00 0.00 0.00 99 1009.0
20260906112830 68 122 0.0 0.0 0.00 0.00 0.00 99 1009.1
20260906112326 68 122 0.0 0.0 0.00 0.00 0.00 99 1009.0
20260906111825 68 122 0.0 0.0 0.00 0.00 0.00 99 1008.9
20260906111320 68 122 0.0 0.0 0.00 0.00 0.00 99 1008.9
20260906110815 68 120 0.0 0.0 0.00 0.00 0.00 99 1009.0
20260906110311 68 125 0.0 0.0 0.00 0.00 0.00 99 1008.8
20260906105810 68 111 0.0 1.0 0.00 0.00 0.00 99 1008.9
20260906105306 68 120 0.0 0.0 0.00 0.00 0.00 99 1008.8
20260906104801 68 120 0.0 0.0 0.00 0.00 0.00 99 1008.8
20260906104259 68 121 0.0 0.0 0.00 0.00 0.00 99 1008.8
20260906103757 68 123 0.0 0.0 0.00 0.00 0.00 99 1008.8
20260906103252 68 124 0.0 0.0 0.00 0.00 0.00 99 1008.6
20260906102748 68 123 0.0 0.0 0.00 0.00 0.00 99 1008.7
20260906102246 68 122 0.0 0.0 0.00 0.00 0.00 99 1008.5
20260906101742 69 123 0.0 0.0 0.00 0.00 0.00 99 1008.7
20260906101242 69 123 0.0 0.0 0.00 0.00 0.00 99 1008.6
20260906100737 69 126 0.0 0.0 0.00 0.00 0.00 99 1008.8
20260906100236 69 123 0.0 0.0 0.00 0.00 0.00 99 1008.4
20260906095732 69 123 0.0 0.0 0.00 0.00 0.00 99 1008.4
20260906095222 69 121 0.0 0.0 0.00 0.00 0.00 99 1008.2
20260906094720 69 123 0.0 0.0 0.00 0.00 0.00 98 1008.4
20260906094216 69 123 0.0 0.0 0.00 0.00 0.00 98 1008.4
20260906093712 69 123 0.0 0.0 0.00 0.00 0.00 98 1008.4
20260906093208 69 123 0.0 0.0 0.00 0.00 0.00 98 1008.5
20260906092702 69 123 0.0 0.0 0.00 0.00 0.00 98 1008.4
20260906092201 69 123 0.0 0.0 0.00 0.00 0.00 98 1008.0
20260906091658 69 123 0.0 0.0 0.00 0.00 0.00 98 1008.0
20260906091154 69 123 0.0 0.0 0.00 0.00 0.00 97 1007.9
20260906090650 70 123 0.0 0.0 0.00 0.00 0.00 97 1007.9
20260906090149 70 123 0.0 0.0 0.00 0.00 0.00 97 1008.2
20260906085648 70 124 0.0 0.0 0.00 0.00 0.00 97 1008.0
20260906085143 70 123 0.0 0.0 0.00 0.00 0.00 97 1007.9
20260906084637 70 123 0.0 0.0 0.00 0.00 0.00 97 1008.0
20260906084136 70 130 0.0 0.0 0.00 0.00 0.00 97 1007.9
20260906083632 70 124 0.0 0.0 0.00 0.00 0.00 96 1008.0
20260906083127 70 123 0.0 0.0 0.00 0.00 0.00 96 1008.2
20260906082623 70 123 0.0 0.0 0.00 0.00 0.00 96 1008.0
20260906082118 70 123 0.0 0.0 0.00 0.00 0.00 95 1007.9
20260906081614 70 123 0.0 0.0 0.00 0.00 0.00 95 1008.2
20260906081108 70 123 0.0 0.0 0.00 0.00 0.00 95 1008.2
20260906080605 71 123 0.0 0.0 0.00 0.00 0.00 95 1007.9
20260906075555 71 123 0.0 0.0 0.00 0.00 0.00 95 1007.9
20260906075049 71 124 0.0 0.0 0.00 0.00 0.00 95 1007.9
20260906074544 71 127 0.0 0.0 0.00 0.00 0.00 95 1008.1
20260906074043 71 126 0.0 0.0 0.00 0.00 0.00 94 1008.1
20260906073538 71 123 0.0 0.0 0.00 0.00 0.00 94 1008.2
20260906073034 71 123 0.0 0.0 0.00 0.00 0.00 94 1008.4
20260906072528 71 123 0.0 0.0 0.00 0.00 0.00 93 1008.4
20260906072025 71 123 0.0 0.0 0.00 0.00 0.00 93 1008.4
20260906071521 71 123 0.0 0.0 0.00 0.00 0.00 93 1008.2
20260906071016 71 123 0.0 0.0 0.00 0.00 0.00 93 1008.4
20260906070512 72 124 0.0 0.0 0.00 0.00 0.00 92 1008.4
20260906070008 72 123 0.0 0.0 0.00 0.00 0.00 92 1008.5
20260906065507 72 123 0.0 0.0 0.00 0.00 0.00 92 1008.4
20260906065003 72 126 0.0 0.0 0.00 0.00 0.00 92 1008.2
20260906064459 72 123 0.0 0.0 0.00 0.00 0.00 92 1008.7
20260906063954 72 126 0.0 0.0 0.00 0.00 0.00 91 1008.4
20260906063449 72 126 0.0 0.0 0.00 0.00 0.00 91 1008.5
20260906062949 73 126 0.0 0.0 0.00 0.00 0.00 91 1008.7
20260906062439 73 123 0.0 0.0 0.00 0.00 0.00 90 1008.6
20260906061934 73 123 0.0 0.0 0.00 0.00 0.00 90 1008.4
20260906061430 73 126 0.0 0.0 0.00 0.00 0.00 90 1008.5
20260906060924 73 122 0.0 0.0 0.00 0.00 0.00 90 1008.6
20260906060421 73 123 0.0 0.0 0.00 0.00 0.00 89 1008.6
20260906055917 73 127 0.0 1.0 0.00 0.00 0.00 89 1008.6
20260906055413 73 127 0.0 0.0 0.00 0.00 0.00 89 1008.6
20260906054908 73 123 0.0 0.0 0.00 0.00 0.00 89 1008.6
20260906054403 73 123 0.0 0.0 0.00 0.00 0.00 89 1008.6
20260906053859 73 123 0.0 0.0 0.00 0.00 0.00 89 1008.7
20260906053355 74 126 0.0 0.0 0.00 0.00 0.00 89 1008.6
20260906052850 74 123 0.0 0.0 0.00 0.00 0.00 88 1008.5
20260906052346 74 123 0.0 0.0 0.00 0.00 0.00 88 1008.4
20260906051843 74 125 0.0 0.0 0.00 0.00 0.00 88 1008.4
20260906051343 74 123 0.0 0.0 0.00 0.00 0.00 87 1008.4
20260906050838 74 121 0.0 0.0 0.00 0.00 0.00 87 1008.2
20260906050333 74 124 0.0 0.0 0.00 0.00 0.00 86 1008.2
20260906045832 75 127 0.0 0.0 0.00 0.00 0.00 86 1008.6
20260906045326 75 123 0.0 0.0 0.00 0.00 0.00 86 1008.4
20260906044823 75 123 0.0 0.0 0.00 0.00 0.00 85 1008.6
20260906044323 75 124 0.0 0.0 0.00 0.00 0.00 85 1008.8
20260906043819 75 123 0.0 0.0 0.00 0.00 0.00 84 1008.7
20260906043314 75 124 0.0 0.0 0.00 0.00 0.00 84 1008.8
20260906042809 76 124 0.0 0.0 0.00 0.00 0.00 83 1008.6
20260906042308 76 126 0.0 0.0 0.00 0.00 0.00 83 1008.5
20260906041803 76 124 0.0 0.0 0.00 0.00 0.00 82 1008.6
20260906041253 76 124 0.0 0.0 0.00 0.00 0.00 82 1008.5
20260906040748 76 126 0.0 0.0 0.00 0.00 0.00 82 1008.6
20260906040243 77 123 0.0 0.0 0.00 0.00 0.00 82 1008.7
20260906035739 77 123 0.0 0.0 0.00 0.00 0.00 81 1008.6
20260906035235 77 124 0.0 0.0 0.00 0.00 0.00 81 1008.7
20260906034734 77 123 0.0 0.0 0.00 0.00 0.00 81 1008.4
20260906034229 77 124 0.0 0.0 0.00 0.00 0.00 81 1008.6
20260906033725 77 125 0.0 0.0 0.00 0.00 0.00 81 1008.4
20260906033224 77 124 0.0 0.0 0.00 0.00 0.00 80 1008.5
20260906032721 77 123 0.0 0.0 0.00 0.00 0.00 80 1008.4
20260906032221 77 125 0.0 0.0 0.00 0.00 0.00 79 1008.6
20260906031716 77 125 0.0 0.0 0.00 0.00 0.00 78 1008.1
20260906031212 78 126 0.0 0.0 0.00 0.00 0.00 78 1008.4
20260906030711 78 126 0.0 0.0 0.00 0.00 0.00 77 1008.4
20260906030207 78 126 0.0 0.0 0.00 0.00 0.00 76 1008.2
20260906025706 78 130 0.0 0.0 0.00 0.00 0.00 76 1008.0
20260906025206 78 126 0.0 0.0 0.00 0.00 0.00 75 1008.0
20260906024700 79 125 0.0 0.0 0.00 0.00 0.00 75 1008.1
20260906024159 79 124 0.0 0.0 0.00 0.00 0.00 74 1007.9
20260906023655 79 124 0.0 0.0 0.00 0.00 0.00 73 1008.1
20260906023155 80 124 0.0 0.0 0.00 0.00 0.00 72 1007.9
20260906022650 80 126 0.0 0.0 0.00 0.00 0.00 72 1008.0
20260906022146 80 124 0.0 0.0 0.00 0.00 0.00 71 1007.7
20260906021642 81 126 0.0 0.0 0.00 0.00 0.00 70 1007.7
20260906021140 81 129 0.0 0.0 0.00 0.00 0.00 70 1007.8
20260906020635 81 127 0.0 0.0 0.00 0.00 0.00 69 1007.5
20260906020130 82 130 0.0 0.0 0.00 0.00 0.00 67 1007.4
20260906015624 82 123 0.0 0.0 0.00 0.00 0.00 67 1007.4
20260906015122 82 127 0.0 0.0 0.00 0.00 0.00 65 1007.4
20260906014617 83 126 0.0 0.0 0.00 0.00 0.00 65 1007.4
20260906014114 83 130 0.0 0.0 0.00 0.00 0.00 64 1007.1
20260906013609 83 132 0.0 0.0 0.00 0.00 0.00 64 1007.4
20260906013104 84 126 0.0 0.0 0.00 0.00 0.00 63 1007.1
20260906012559 84 123 0.0 0.0 0.00 0.00 0.00 62 1007.1
20260906012059 84 134 0.0 1.0 0.00 0.00 0.00 62 1007.0
20260906011555 84 134 0.0 0.0 0.00 0.00 0.00 62 1007.4
20260906011054 84 123 0.0 0.0 0.00 0.00 0.00 62 1007.0
20260906010550 84 145 1.0 1.0 0.00 0.00 0.00 62 1007.0
20260906010046 84 152 1.0 1.0 0.00 0.00 0.00 61 1006.9
20260906005545 85 129 0.0 0.0 0.00 0.00 0.00 60 1006.6
20260906005044 86 127 0.0 0.0 0.00 0.00 0.00 59 1006.8
20260906004538 86 126 0.0 0.0 0.00 0.00 0.00 58 1006.8
20260906004034 87 132 0.0 1.0 0.00 0.00 0.00 57 1006.8
20260906003528 88 148 1.0 2.0 0.00 0.00 0.00 55 1006.9
20260906003024 89 129 0.0 0.0 0.00 0.00 0.00 53 1007.0
20260906002519 90 73 1.0 1.0 0.00 0.00 0.00 51 1007.0
20260906002014 90 129 0.0 0.0 0.00 0.00 0.00 50 1006.6
20260906001509 91 131 0.0 1.0 0.00 0.00 0.00 50 1007.1
20260906001003 92 123 0.0 0.0 0.00 0.00 0.00 49 1007.0
20260906000500 92 123 0.0 1.0 0.00 0.00 0.00 48 1007.0
20260905235959 93 118 1.0 1.0 0.00 0.00 0.00 47 1006.9
20260905235453 93 113 1.0 1.0 0.00 0.00 0.00 47 1007.1
20260905234948 93 118 0.0 0.0 0.00 0.00 0.00 47 1006.9